{"data":{"norad_id":66140,"epoch":"2026-09-20T23:06:52.975296Z","epoch_age_seconds":60381,"freshness":"FRESH","line1":"1 66140U 25237AC  26263.96311314  .00003922  00000+0  12728-3 0  9991","line2":"2 66140  53.1571 209.3427 0001552 104.8389 255.2785 15.34369951 52551","mean_motion":15.34369951,"eccentricity":0.0001552,"inclination_deg":53.1571,"raan_deg":209.3427,"arg_perigee_deg":104.8389,"mean_anomaly_deg":255.2785,"bstar":0.00012728,"rev_number":5255,"period_min":93.849595989644,"perigee_km":461.73084135849,"apogee_km":463.85426589193,"semimajor_km":6840.9295536252,"source":"CELESTRAK","updated_at":"2026-09-21T09:00:35.811741Z"}}